QPF
0.00 0.00 0.00 0.00 0.00 0.00 0.00 0.00 0.00 0.00 0.00 0.00 0.00 0.00 0.00 0.00 0.00 0.00 0.00 0.00 0.00 0.00 0.00 0.01 0.01 0.01 0.00
0.00 0.00 0.00 0.00 0.00 0.00 0.00 0.00 0.00 0.00 0.00 0.00 0.00 0.00 0.00 0.00 0.00 0.00 0.00 0.00 0.00 0.00 0.00 0.01 0.01 0.01 0.00
0.00 0.00 0.00 0.00 0.00 0.00 0.00 0.00 0.00 0.00 0.00 0.00 0.00 0.00 0.00 0.00 0.00 0.00 0.00 0.00 0.00 0.00 0.00 0.00 0.01 0.00 0.00
0.00 0.00 0.00 0.00 0.00 0.00 0.00 0.00 0.00 0.00 0.00 0.00 0.00 0.00 0.00 0.00 0.00 0.00 0.00 0.00 0.00 0.00 0.00 0.00 0.00 0.00 0.00
0.00 0.00 0.00 0.00 0.00 0.00 0.00 0.00 0.00 0.00 0.00 0.00 0.00 0.00 0.00 0.00 0.00 0.00 0.00 0.00 0.00 0.00 0.00 0.00 0.00 0.00 0.00
0.00 0.00 0.00 0.00 0.00 0.00 0.00 0.00 0.00 0.00 0.00 0.00 0.00 0.00 0.00 0.00 0.00 0.00 0.00 0.00 0.00 0.00 0.00 0.00 0.00 0.00 0.00
0.00 0.00 0.00 0.00 0.00 0.00 0.00 0.00 0.00 0.00 0.00 0.00 0.00 0.00 0.00 0.00 0.00 0.00 0.00 0.00 0.00 0.00 0.00 0.00 0.00 0.00 0.00
0.00 0.00 0.00 0.00 0.00 0.00 0.00 0.00 0.00 0.00 0.00 0.00 0.00 0.00 0.00 0.00 0.00 0.00 0.00 0.00 0.00 0.00 0.00 0.00 0.00 0.00 0.00
0.00 0.00 0.00 0.00 0.00 0.00 0.00 0.00 0.00 0.00 0.00 0.00 0.00 0.00 0.00 0.00 0.00 0.00 0.00 0.00 0.00 0.00 0.00 0.00 0.00 0.00 0.00
0.00 0.00 0.00 0.00 0.00 0.00 0.00 0.00 0.00 0.00 0.00 0.00 0.00 0.00 0.00 0.00 0.00 0.00 0.00 0.00 0.00 0.00 0.00 0.00 0.00 0.00 0.00
0.00 0.00 0.00 0.00 0.00 0.00 0.00 0.00 0.00 0.00 0.00 0.00 0.00 0.00 0.00 0.00 0.00 0.00 0.00 0.00 0.00 0.00 0.00 0.00 0.00 0.00 0.00
0.00 0.00 0.00 0.00 0.00 0.00 0.00 0.00 0.00 0.00 0.00 0.00 0.00 0.00 0.00 0.00 0.00 0.00 0.00 0.00 0.00 0.00 0.00 0.00 0.00 0.00 0.00
0.00 0.00 0.00 0.00 0.00 0.00 0.00 0.00 0.00 0.00 0.00 0.00 0.00 0.00 0.00 0.00 0.00 0.00 0.00 0.00 0.00 0.00 0.00 0.00 0.00 0.00 0.00
0.00 0.00 0.00 0.00 0.00 0.00 0.00 0.00 0.00 0.00 0.00 0.00 0.00 0.00 0.00 0.00 0.00 0.00 0.00 0.00 0.00 0.00 0.00 0.00 0.00 0.00 0.00
0.00 0.00 0.00 0.00 0.00 0.00 0.00 0.00 0.00 0.00 0.00 0.00 0.00 0.00 0.00 0.00 0.00 0.00 0.00 0.00 0.00 0.00 0.00 0.00 0.00 0.00 0.00
0.00 0.00 0.00 0.00 0.00 0.00 0.00 0.00 0.00 0.00 0.00 0.00 0.00 0.00 0.00 0.00 0.00 0.00 0.00 0.00 0.00 0.00 0.00 0.00 0.00 0.00 0.00
0.00 0.00 0.00 0.00 0.00 0.00 0.00 0.00 0.00 0.00 0.00 0.00 0.00 0.00 0.00 0.00 0.00 0.00 0.00 0.00 0.00 0.00 0.00 0.00 0.00 0.00 0.00
MSLP
1023.44 1022.16 1021.90 1021.87 1021.35 1021.01 1020.55 1019.87 1019.23 1018.82 1017.72 1017.06 1016.41 1015.73 1015.30 1014.48 1013.31 1013.22 1014.42 1015.53 1016.48 1017.40 1018.37 1019.16 1019.96 1020.80 1021.35
1023.16 1022.90 1022.04 1021.54 1021.31 1020.85 1020.36 1019.82 1019.17 1018.50 1017.61 1016.85 1015.93 1015.64 1015.08 1014.57 1014.00 1013.68 1014.14 1015.12 1015.98 1017.03 1018.01 1018.99 1019.71 1020.60 1021.32
1022.79 1022.49 1021.99 1021.22 1020.94 1020.69 1020.14 1019.77 1019.03 1018.17 1017.47 1016.62 1015.77 1015.27 1014.71 1013.74 1013.39 1013.66 1013.97 1014.75 1015.59 1016.67 1017.55 1018.80 1019.46 1020.27 1021.25
1022.21 1022.05 1021.84 1020.93 1020.77 1020.53 1019.92 1019.56 1018.86 1018.08 1017.50 1016.95 1016.13 1015.30 1014.87 1014.04 1013.84 1013.45 1014.00 1014.32 1015.34 1016.37 1017.20 1018.39 1019.21 1019.93 1021.08
1021.46 1021.34 1021.28 1020.97 1020.62 1020.34 1020.23 1019.68 1018.85 1017.85 1017.31 1016.89 1016.40 1015.54 1014.52 1014.18 1013.36 1013.15 1013.31 1014.05 1014.97 1015.93 1016.90 1017.97 1018.90 1019.66 1020.83
1020.63 1020.44 1020.29 1020.31 1019.94 1019.83 1019.91 1019.64 1018.84 1017.77 1017.40 1016.57 1016.63 1015.71 1014.73 1014.03 1013.44 1012.57 1012.64 1013.31 1014.31 1015.60 1016.47 1017.67 1018.68 1019.50 1020.68
1019.48 1019.36 1019.29 1019.45 1019.51 1019.50 1019.43 1019.31 1018.93 1018.33 1018.06 1016.28 1016.15 1015.54 1014.64 1013.70 1013.07 1012.93 1012.14 1012.52 1013.45 1014.99 1015.75 1017.07 1018.43 1019.24 1020.48
1018.34 1018.66 1018.60 1018.67 1018.84 1018.83 1018.79 1018.62 1018.56 1018.10 1017.96 1016.68 1015.83 1015.13 1014.26 1013.33 1012.64 1012.26 1012.08 1011.72 1012.43 1013.90 1014.88 1016.41 1018.01 1018.96 1020.24
1017.32 1017.46 1017.41 1017.41 1017.60 1018.22 1018.21 1018.30 1017.90 1017.49 1017.30 1016.79 1015.49 1014.79 1013.79 1012.72 1011.90 1011.45 1010.77 1011.24 1011.62 1012.80 1014.16 1015.70 1017.42 1018.71 1020.24
1016.58 1016.48 1016.36 1016.24 1016.15 1016.52 1016.86 1017.14 1017.31 1017.06 1016.30 1016.46 1015.47 1015.04 1013.42 1011.53 1011.26 1011.00 1010.73 1010.99 1011.43 1011.95 1013.29 1014.90 1016.62 1018.30 1019.86
1015.60 1015.72 1015.86 1015.92 1015.96 1016.01 1016.03 1016.29 1016.45 1016.42 1015.97 1016.07 1015.63 1015.34 1015.00 1013.93 1012.57 1011.45 1011.16 1011.15 1011.68 1011.91 1012.85 1013.87 1015.55 1017.20 1018.90
1014.45 1014.61 1014.79 1014.95 1015.12 1015.33 1015.39 1015.45 1015.40 1015.40 1015.61 1015.80 1015.71 1015.71 1015.17 1014.63 1013.58 1012.21 1011.26 1010.24 1010.91 1011.95 1012.50 1013.81 1014.98 1016.77 1018.15
1013.30 1013.46 1013.72 1013.91 1014.17 1014.39 1014.61 1014.80 1014.92 1014.91 1014.94 1015.21 1015.31 1015.35 1015.26 1014.99 1014.09 1013.47 1013.06 1010.42 1009.77 1010.87 1011.85 1013.06 1014.19 1015.99 1017.76
1012.39 1012.58 1012.79 1013.16 1013.36 1013.60 1013.88 1014.08 1014.39 1014.34 1014.21 1014.45 1014.59 1014.64 1014.53 1014.44 1014.43 1013.81 1013.58 1013.33 1010.38 1010.05 1010.85 1012.24 1013.53 1014.83 1016.25
1011.44 1011.73 1012.00 1012.30 1012.43 1012.74 1013.00 1013.35 1013.42 1013.28 1013.25 1013.28 1013.44 1013.58 1013.79 1014.04 1013.68 1013.36 1013.08 1012.73 1011.69 1011.03 1010.18 1011.12 1012.51 1013.70 1015.21
1010.65 1010.80 1010.98 1011.17 1011.48 1011.76 1012.04 1012.31 1012.47 1012.41 1012.38 1012.54 1012.80 1013.09 1013.17 1012.81 1012.94 1012.59 1012.25 1012.07 1011.23 1010.91 1009.64 1010.15 1011.64 1012.83 1014.29
1009.67 1009.84 1010.09 1010.29 1010.56 1010.77 1010.98 1011.26 1011.48 1011.62 1011.74 1011.85 1012.02 1012.22 1012.00 1011.35 1011.10 1010.99 1011.11 1011.18 1010.69 1010.37 1009.58 1009.45 1010.40 1011.86 1013.17
Thickness
5437 5445 5453 5463 5475 5484 5492 5503 5510 5515 5529 5540 5549 5558 5569 5585 5602 5608 5609 5609 5610 5611 5612 5611 5610 5608 5607
5420 5423 5431 5441 5454 5467 5477 5486 5497 5505 5518 5530 5543 5549 5559 5572 5586 5597 5602 5604 5607 5608 5608 5607 5606 5605 5604
5398 5408 5413 5423 5433 5445 5459 5470 5483 5494 5505 5518 5532 5541 5554 5567 5581 5588 5595 5599 5602 5604 5605 5602 5603 5603 5600
5368 5384 5394 5404 5413 5422 5439 5452 5465 5479 5489 5501 5515 5531 5543 5555 5564 5580 5585 5593 5594 5597 5600 5599 5599 5600 5596
5343 5357 5370 5380 5387 5399 5411 5427 5444 5463 5476 5485 5498 5513 5531 5541 5555 5569 5581 5585 5585 5590 5593 5594 5595 5596 5593
5317 5332 5348 5354 5365 5375 5385 5401 5424 5444 5457 5472 5480 5497 5514 5528 5543 5559 5572 5579 5579 5581 5586 5587 5588 5590 5588
5292 5309 5321 5333 5340 5350 5360 5378 5396 5415 5430 5457 5466 5482 5496 5516 5533 5546 5562 5571 5574 5575 5582 5581 5580 5584 5583
5271 5280 5293 5308 5317 5328 5337 5354 5372 5390 5404 5435 5446 5467 5483 5503 5521 5536 5550 5565 5573 5572 5577 5576 5573 5577 5577
5250 5256 5269 5284 5299 5302 5318 5330 5352 5371 5385 5410 5430 5448 5469 5491 5510 5527 5545 5556 5567 5571 5568 5570 5567 5569 5567
5232 5240 5250 5264 5280 5289 5305 5316 5331 5349 5368 5387 5411 5427 5457 5484 5500 5509 5529 5540 5555 5565 5564 5565 5562 5560 5559
5224 5227 5233 5243 5259 5268 5283 5297 5308 5329 5350 5363 5389 5403 5423 5447 5472 5492 5510 5524 5537 5546 5554 5560 5558 5558 5559
5219 5223 5226 5233 5242 5250 5259 5277 5293 5315 5329 5345 5368 5382 5404 5421 5444 5469 5494 5517 5526 5533 5541 5543 5546 5549 5553
5216 5219 5222 5226 5230 5236 5244 5258 5275 5295 5317 5333 5351 5364 5383 5401 5422 5442 5462 5500 5522 5528 5534 5535 5539 5540 5539
5208 5211 5214 5216 5221 5225 5232 5243 5259 5279 5302 5319 5336 5351 5371 5388 5402 5422 5439 5456 5498 5518 5530 5531 5532 5538 5545
5197 5201 5205 5209 5214 5216 5222 5231 5246 5268 5291 5310 5327 5341 5358 5372 5393 5410 5427 5441 5471 5492 5516 5527 5530 5536 5540
5186 5191 5196 5201 5206 5210 5214 5223 5236 5255 5277 5298 5313 5328 5346 5369 5385 5402 5419 5436 5462 5482 5511 5519 5524 5530 5534
5178 5183 5188 5193 5197 5202 5208 5215 5227 5244 5266 5287 5304 5321 5341 5368 5386 5399 5415 5432 5451 5470 5498 5515 5522 5529 5533